GFSSE_925_thetae_219.txt.gz
Theta_e
352 352 352 352 350 349 350 351 353 353 352 353 353 351 351 351 349 350 351 350 347 348 351 350 351 351 351 351 352 352 351 351 349 347 346 344 350 349 349 341 343 349 352
351 350 350 349 353 353 351 349 352 349 351 352 353 353 353 352 352 352 352 348 350 351 351 350 350 350 350 350 350 351 353 352 353 343 346 345 341 343 349 350 344 342 348
350 350 351 350 354 352 352 352 350 352 352 352 352 351 352 352 351 350 352 352 351 351 350 350 350 350 349 348 349 350 351 352 345 350 349 350 351 351 349 341 341 350 343
350 351 350 350 353 351 350 351 353 353 353 353 352 352 352 352 352 353 352 352 352 352 351 350 350 349 349 349 348 349 350 343 340 348 351 349 348 350 351 350 350 347 344
351 353 352 348 353 347 340 349 350 353 352 348 349 347 349 350 351 351 352 352 352 352 352 348 347 347 348 347 344 342 345 342 343 348 346 349 349 347 345 348 345 347 346
349 351 347 345 351 350 347 348 345 352 353 350 349 350 351 351 352 352 351 350 349 349 349 345 344 346 348 343 342 342 341 342 347 347 343 346 349 344 345 348 344 342 340
347 348 352 351 349 350 349 348 348 353 350 351 349 348 350 350 345 342 340 339 339 339 345 346 346 342 341 341 342 344 341 344 348 347 347 349 348 351 350 349 345 344 343
346 346 345 346 350 346 346 349 350 352 350 348 348 346 344 339 340 342 344 344 345 345 346 340 338 341 340 338 344 348 339 343 343 344 347 348 342 348 350 347 348 345 344
343 346 348 352 348 352 352 350 349 347 349 350 345 344 344 344 345 345 345 344 345 346 348 347 344 344 342 341 346 343 340 342 345 345 345 345 337 343 348 345 345 339 339
341 346 347 347 345 344 344 342 342 346 345 344 344 345 344 345 348 345 349 344 345 345 351 352 350 346 343 344 343 336 340 343 345 344 346 342 342 343 344 344 344 344 345
342 346 345 345 345 346 345 347 344 343 344 347 347 347 351 352 351 352 344 344 347 346 347 346 345 342 339 338 338 344 346 345 345 345 344 337 338 342 343 343 344 345 345
341 343 342 344 346 349 350 352 352 353 353 354 352 354 352 351 351 349 347 346 346 346 344 344 348 349 349 348 346 345 347 345 343 343 340 339 341 343 343 343 343 346 349
342 341 342 344 347 349 349 350 351 350 352 352 356 354 354 353 354 353 354 354 353 353 352 351 351 355 352 349 350 345 344 343 343 345 340 340 342 343 341 340 340 340 340
341 342 343 343 347 351 348 349 350 350 351 351 352 356 356 348 351 350 351 349 352 349 349 351 350 351 349 350 350 347 347 345 345 344 344 342 344 342 338 334 333 331 332
339 340 342 347 352 352 351 352 348 348 347 348 350 354 352 350 354 351 347 347 351 352 347 349 350 352 350 348 350 350 347 347 346 346 347 341 341 339 334 332 331 331 333
338 340 347 351 352 353 354 352 350 350 351 348 351 355 357 352 353 353 352 346 347 352 353 354 354 352 351 350 349 348 349 348 346 347 348 345 338 336 333 333 339 339 332
338 341 349 351 353 354 354 353 352 350 348 350 353 356 357 354 357 354 347 347 348 351 353 353 350 349 347 348 348 346 343 345 344 343 349 348 344 336 331 330 335 332 332
337 343 349 350 353 352 353 353 351 350 349 351 351 354 356 355 356 357 348 349 348 347 347 347 346 343 346 347 347 348 344 345 346 345 346 349 349 345 335 328 327 330 329
337 346 350 351 351 352 354 353 352 354 350 351 350 351 355 355 357 354 352 352 347 342 342 342 347 345 349 347 347 347 347 347 350 348 346 346 344 345 345 331 328 329 329
340 347 350 351 351 353 354 353 351 352 350 350 351 354 358 354 354 359 353 354 351 346 342 346 350 349 347 348 346 348 348 347 346 346 347 348 346 342 341 344 343 340 332
341 347 351 353 354 354 353 351 351 350 350 350 353 356 353 352 354 358 353 357 354 349 349 349 343 347 347 351 346 346 348 348 346 344 344 342 346 343 341 340 339 341 341
342 345 350 352 356 355 352 351 350 349 349 349 352 353 352 355 358 357 357 354 359 358 356 349 346 339 338 344 344 343 347 346 341 337 338 338 339 336 337 340 338 337 337
342 342 347 350 355 356 351 352 356 354 354 353 354 353 353 355 358 358 358 358 358 354 354 346 341 337 336 335 339 341 341 337 333 339 337 333 334 332 333 332 335 336 338
343 342 346 351 355 355 354 351 354 353 351 349 350 353 352 354 356 357 358 360 361 355 355 349 344 336 339 334 335 334 336 334 337 335 337 336 333 332 332 331 331 334 338
344 342 347 352 354 354 355 357 353 353 349 350 350 352 355 357 356 356 359 360 360 358 359 354 350 341 331 335 333 333 333 331 334 331 331 330 330 332 331 331 332 332 335
348 344 346 354 356 355 354 357 355 352 354 350 352 354 351 352 355 357 359 360 360 363 359 357 352 347 339 332 333 331 330 330 330 330 330 330 330 331 331 331 331 331 331

GFSSE_925_thetae_222.txt.gz
Theta_e
354 351 350 349 351 353 353 354 353 353 353 351 351 351 351 351 351 351 351 345 349 352 351 352 352 352 351 353 352 347 350 341 340 347 353 347 348 347 346 348 349 351 351
351 352 351 351 354 353 354 352 349 352 353 353 353 353 353 352 352 351 345 350 351 351 350 350 350 350 351 351 352 351 347 348 343 345 346 348 350 350 347 342 340 349 350
351 351 352 353 350 352 353 350 352 353 353 352 353 352 353 351 347 352 352 351 351 351 350 350 350 349 349 350 351 352 352 347 350 347 348 347 345 345 342 339 350 345 346
349 351 353 350 352 353 351 353 353 353 353 353 353 352 353 351 353 352 352 352 353 352 351 350 349 349 349 348 349 351 343 344 347 347 346 348 351 347 342 342 344 348 344
352 353 352 354 352 351 348 350 353 352 352 352 349 350 351 352 352 352 352 352 352 349 345 347 347 349 349 347 342 343 339 338 347 349 338 343 350 351 351 348 347 348 346
353 351 348 353 353 352 351 352 352 353 348 349 350 351 351 352 352 351 350 350 350 346 344 344 346 348 344 342 342 341 341 345 348 348 347 349 346 350 351 349 342 338 341
352 351 350 352 352 353 348 350 353 351 351 352 351 351 350 347 346 345 342 342 341 343 347 345 348 341 346 340 341 338 337 346 347 348 341 348 350 350 351 351 348 346 347
348 352 350 352 353 351 343 349 353 351 345 347 341 343 343 340 341 342 344 345 346 347 352 344 340 341 342 341 339 341 346 347 343 346 348 338 343 346 349 347 346 346 345
346 346 351 350 348 348 346 347 349 348 347 345 343 344 344 344 344 344 345 344 345 346 346 344 342 340 341 342 340 339 340 343 346 345 346 336 339 346 347 345 341 340 343
345 348 350 347 350 349 347 338 339 344 344 344 345 343 344 346 344 347 344 344 345 349 350 349 343 340 339 342 340 339 340 345 345 346 344 341 343 344 344 349 349 349 350
345 348 346 347 345 344 343 343 343 343 343 345 344 348 351 354 352 350 349 344 346 346 344 343 340 338 338 337 342 343 346 346 345 344 339 338 341 343 343 344 345 348 346
345 345 344 345 346 346 349 350 352 352 353 353 352 351 352 354 352 347 344 344 346 344 345 345 341 339 344 342 345 346 345 344 344 342 338 341 342 341 343 344 346 347 347
343 343 343 346 348 350 351 352 352 353 355 354 355 355 353 351 348 348 349 348 341 348 350 351 349 347 347 348 346 346 346 344 344 342 340 341 342 343 342 338 339 339 336
342 342 344 347 349 350 349 351 351 352 352 352 353 352 356 351 351 350 346 348 344 349 339 349 353 354 353 350 350 346 346 345 343 340 340 340 340 339 331 331 331 330 332
342 343 344 348 350 352 349 347 350 351 351 350 333 350 351 342 348 349 348 349 352 350 345 351 350 347 349 351 347 348 347 346 345 339 340 337 339 333 328 328 330 327 330
342 344 346 352 350 354 352 348 351 348 348 352 354 356 354 353 350 354 356 352 348 354 354 350 352 348 349 350 349 348 347 345 348 345 341 341 339 334 329 327 327 325 330
340 345 351 352 352 355 350 351 353 350 351 351 353 354 356 352 356 356 347 347 348 346 346 347 349 350 351 347 342 346 347 346 346 348 347 341 338 334 330 327 326 325 325
339 350 351 350 353 353 350 354 354 351 350 352 353 354 355 355 355 359 348 348 344 347 346 346 344 344 348 346 346 346 346 344 345 348 349 347 345 339 331 329 327 326 326
341 350 350 352 353 352 351 354 353 353 351 352 351 354 353 354 356 354 352 353 342 342 343 349 347 346 349 346 345 347 347 346 348 348 349 349 348 344 339 330 328 329 330
343 350 351 353 351 354 349 355 351 353 353 350 352 354 357 353 355 354 350 353 351 343 343 350 351 349 349 347 347 348 347 346 348 347 347 348 347 346 344 341 336 333 333
343 351 354 353 353 354 357 353 347 352 349 356 356 355 352 353 356 356 355 356 349 347 350 348 346 346 348 349 348 347 347 346 346 343 342 345 346 343 341 344 343 342 339
345 351 354 356 351 356 352 352 351 351 349 354 353 353 352 354 356 359 357 357 359 357 355 345 344 343 339 341 346 349 356 348 340 337 338 337 339 334 336 342 339 340 342
345 351 355 356 354 354 354 352 354 356 353 355 352 353 353 358 356 355 355 359 357 357 351 343 339 337 336 332 334 340 350 349 343 338 335 334 328 332 332 331 335 336 337
345 349 354 356 358 352 356 352 355 355 355 354 352 355 353 356 358 356 357 358 357 355 353 348 335 336 336 336 334 332 331 331 342 348 336 336 332 333 332 331 333 333 336
344 345 352 354 360 353 355 354 353 356 352 351 355 353 354 355 357 357 359 359 361 358 352 352 339 336 332 334 334 335 331 334 331 336 342 339 334 333 332 332 332 332 336
346 345 349 353 359 356 355 357 354 353 355 352 354 352 356 354 357 357 360 360 361 361 360 353 348 339 329 332 329 331 330 332 334 333 339 333 332 333 332 331 331 332 331

GFSSE_925_thetae_228.txt.gz
Theta_e
351 350 350 352 352 351 351 350 352 351 351 350 350 350 350 351 352 351 352 351 352 352 351 352 353 353 351 352 351 353 351 348 345 350 347 348 349 351 350 350 343 342 346
350 349 350 351 353 353 352 351 352 351 351 351 351 351 352 352 351 352 350 351 351 352 351 351 351 352 352 353 350 350 352 352 351 349 352 351 350 352 350 351 350 350 349
348 350 350 351 352 352 352 351 352 352 352 352 352 351 351 351 352 352 352 351 350 351 350 350 351 350 353 353 353 349 350 341 340 345 347 347 348 344 335 340 346 343 348
347 350 350 349 350 352 349 347 351 352 352 352 352 351 352 352 352 352 351 351 351 351 350 350 350 351 352 352 350 349 345 344 346 342 344 347 344 340 342 336 333 334 336
349 347 350 347 351 352 351 352 350 352 352 352 352 352 352 352 353 352 352 353 352 352 351 351 350 350 349 342 344 346 345 346 341 341 346 344 348 347 348 350 349 347 348
347 347 350 350 352 352 349 351 351 342 348 351 352 352 352 352 352 353 352 351 349 349 350 350 350 349 344 339 345 346 347 343 338 344 346 347 349 349 350 346 346 340 341
349 343 345 350 351 351 348 344 344 345 348 351 352 352 351 350 346 344 346 348 349 348 348 349 349 345 342 340 344 346 347 344 345 345 345 345 347 348 350 347 346 342 337
347 347 347 349 344 345 347 346 347 350 351 347 345 346 345 344 341 340 342 343 345 343 341 344 349 341 342 339 343 347 348 345 345 341 344 342 345 347 348 342 343 344 336
346 346 348 347 346 347 350 346 339 342 343 342 342 342 343 344 346 347 347 349 349 345 342 342 347 343 339 337 343 346 346 347 342 334 336 341 345 347 344 341 342 341 340
346 344 343 344 343 339 342 341 342 344 344 344 344 345 346 348 351 348 345 348 351 348 343 343 343 338 339 344 345 343 345 346 344 337 339 341 344 349 349 348 347 347 347
345 340 334 334 337 333 336 340 345 346 345 346 347 348 348 348 349 349 346 348 349 350 349 349 348 338 340 342 340 342 346 346 345 340 341 342 343 346 345 344 343 343 344
349 343 340 339 336 336 340 343 345 346 347 349 349 350 350 349 349 348 344 345 346 345 339 341 342 342 340 338 340 342 344 345 341 339 340 341 338 339 339 335 337 342 343
348 345 344 344 343 345 345 350 351 346 341 345 349 349 347 347 345 345 344 343 344 345 340 338 340 341 342 344 344 345 346 345 339 339 339 338 339 333 328 329 331 330 328
349 345 345 345 346 348 349 351 349 348 348 348 343 347 348 348 346 341 338 342 346 346 347 344 343 343 344 344 345 346 344 341 338 339 339 337 335 327 326 325 325 323 322
345 345 345 346 346 349 351 352 351 352 351 347 347 341 345 342 344 344 335 342 342 341 347 349 349 349 349 347 347 347 349 342 338 338 337 336 332 327 326 325 325 325 322
343 343 346 347 349 349 349 351 352 352 349 350 349 346 347 351 347 345 344 346 345 344 345 347 349 349 349 350 349 348 347 344 337 337 335 335 332 328 327 326 325 326 325
344 346 348 349 350 349 350 350 351 351 347 350 352 349 352 351 348 348 347 348 347 346 348 347 345 344 346 349 348 347 346 342 338 337 337 337 335 330 329 328 327 329 329
347 349 351 351 350 349 350 351 349 349 352 352 353 352 355 355 350 350 348 349 350 351 351 351 351 346 348 348 348 345 345 345 343 339 340 339 337 333 330 330 329 329 330
348 351 351 349 350 350 349 351 353 353 353 350 349 354 354 348 347 349 347 351 352 352 349 349 349 351 348 348 349 346 345 346 346 344 345 342 340 338 332 331 329 330 331
348 350 349 348 346 345 346 353 354 354 350 353 352 352 353 351 351 352 343 341 344 347 348 347 350 350 348 347 347 346 346 346 346 347 347 345 344 341 337 333 331 331 332
349 349 350 351 346 347 349 351 353 354 352 353 352 350 354 354 355 351 349 346 341 344 348 346 346 346 348 347 348 347 346 347 347 348 348 348 347 346 343 338 336 335 335
349 350 350 351 343 346 348 352 350 354 353 354 352 350 353 355 355 354 352 346 341 344 347 343 343 343 340 346 344 347 342 343 342 343 347 348 347 348 346 344 343 340 339
348 350 353 351 347 348 349 353 355 356 354 353 350 352 354 356 356 356 358 358 346 338 344 341 339 336 332 335 341 345 341 343 338 336 342 346 334 334 337 342 343 342 341
347 349 354 350 349 346 349 352 353 356 354 352 350 350 355 355 354 354 356 355 354 336 341 340 338 335 331 330 328 330 330 336 334 336 336 335 332 328 330 331 333 334 337
346 349 354 351 350 348 350 350 351 355 352 351 349 350 355 358 358 356 353 354 354 350 338 336 335 336 336 335 334 332 333 333 331 328 328 335 336 333 331 331 330 331 333
347 349 355 352 350 349 349 352 355 355 352 351 350 351 354 357 356 358 356 357 356 350 349 334 333 333 333 333 333 332 331 333 332 329 324 325 328 330 331 333 332 331 331

GFSSE_925_thetae_234.txt.gz
Theta_e
349 350 351 352 352 351 351 349 352 351 351 350 347 350 350 348 348 344 347 349 353 353 353 352 352 354 353 352 351 352 353 353 353 352 352 350 349 342 344 344 339 347 343
347 349 349 352 352 351 351 352 347 351 349 349 349 351 351 352 352 352 352 353 352 353 354 351 352 350 354 353 351 353 353 353 353 353 354 353 350 350 350 349 341 351 351
347 349 348 347 351 352 351 352 351 351 351 351 351 351 351 351 351 352 352 353 352 352 352 353 353 350 350 351 352 346 349 351 351 351 348 346 348 350 350 349 352 349 341
348 350 349 350 350 351 350 351 352 351 350 351 351 351 351 351 352 350 351 351 351 352 352 353 352 353 349 347 347 350 349 349 347 345 346 349 348 346 346 345 339 342 346
349 350 350 347 351 351 351 350 351 351 350 351 351 351 349 351 351 351 351 350 350 350 351 352 352 353 351 350 345 346 346 344 346 345 345 347 348 350 348 345 348 344 342
349 347 350 351 352 351 350 350 350 351 351 351 351 351 352 351 350 351 350 350 352 351 351 351 351 351 345 346 346 345 345 345 343 346 345 347 347 344 344 344 342 338 342
350 346 349 350 351 351 350 349 350 350 351 348 349 352 351 351 347 349 350 350 351 351 351 351 350 350 348 346 346 342 338 339 344 344 345 347 347 343 341 341 344 338 337
348 346 350 350 350 350 350 348 350 350 351 350 351 350 347 345 346 347 346 347 349 350 351 351 350 349 346 346 344 342 342 342 340 340 341 344 345 345 339 340 345 335 334
347 349 349 350 350 350 348 349 350 351 350 350 350 348 346 343 343 343 343 344 348 343 347 350 346 342 344 346 346 346 345 340 339 340 342 343 346 345 340 340 341 342 343
346 349 349 347 350 350 349 348 350 350 347 345 344 345 347 348 346 344 343 342 341 343 339 343 342 343 342 346 345 346 347 340 338 338 341 343 346 343 343 343 345 346 345
348 348 343 345 350 350 347 350 350 348 349 349 348 346 347 347 343 344 343 343 342 347 341 340 341 341 341 345 343 344 345 344 339 339 341 343 343 343 338 337 338 339 340
349 348 341 343 345 346 348 349 348 347 348 347 347 348 348 348 347 347 346 348 349 349 347 342 339 341 342 345 343 344 345 345 341 340 340 339 338 336 333 332 336 337 336
345 347 343 340 340 339 343 346 346 346 348 348 348 349 348 347 344 346 347 350 349 349 347 339 339 342 343 342 341 343 344 344 342 339 339 338 333 331 329 326 325 323 321
345 341 339 336 337 339 342 344 346 348 344 348 348 347 343 344 344 345 344 344 341 341 339 338 339 341 339 340 343 345 344 344 341 339 339 338 335 330 326 324 323 323 318
342 338 336 337 340 343 346 348 346 341 346 345 347 348 345 342 339 336 341 345 341 339 339 338 339 340 342 344 344 345 345 342 338 338 338 337 334 328 327 325 326 326 320
341 340 341 344 346 346 348 349 347 348 349 347 346 345 345 342 342 338 341 344 346 344 342 342 342 343 343 343 344 345 345 347 345 337 338 337 334 330 328 328 329 330 325
343 344 345 346 346 347 349 350 350 350 349 346 344 346 345 344 343 342 341 341 341 344 347 347 347 347 348 348 348 348 347 347 347 341 338 338 336 332 329 330 330 331 332
344 345 346 346 347 349 349 349 350 349 347 348 348 348 349 349 348 345 345 344 343 343 345 346 346 346 346 346 347 347 346 346 345 343 338 338 338 336 332 331 332 331 332
343 344 345 346 348 348 348 349 349 349 347 349 349 351 353 351 348 346 347 347 346 348 349 349 349 347 346 345 347 347 346 345 344 343 339 339 340 340 337 334 333 332 332
343 343 345 347 349 349 349 351 352 349 349 350 351 353 353 347 347 346 346 347 349 350 348 348 348 348 349 348 347 347 347 346 344 344 343 342 341 342 342 339 337 334 334
344 342 345 347 349 349 349 351 352 352 351 351 351 352 346 345 342 342 348 348 348 346 346 348 348 348 347 347 345 346 345 346 345 345 345 345 345 345 345 344 342 340 336
343 343 346 348 349 349 348 350 352 353 349 351 353 352 348 349 350 348 341 342 343 345 345 347 345 344 345 345 345 342 345 343 342 344 346 346 346 346 346 346 345 344 343
344 344 347 349 349 348 347 349 352 352 351 351 352 351 354 355 353 349 345 345 342 341 345 343 345 343 342 343 343 344 345 347 338 338 340 341 340 343 345 343 333 335 338
345 345 347 349 348 347 345 349 352 351 351 351 352 350 353 354 352 351 349 351 343 342 345 343 342 341 340 339 336 337 338 336 342 342 335 335 335 337 340 334 331 330 331
346 346 347 347 345 345 344 348 351 350 351 351 351 350 353 355 352 355 355 355 352 339 340 343 340 339 335 332 332 330 329 329 329 331 332 326 326 327 326 329 331 331 330
346 346 347 346 348 344 344 348 351 353 353 352 351 349 353 354 354 354 354 355 354 350 341 337 339 336 335 335 333 332 331 330 330 329 328 324 324 328 331 329 329 328 330

GFSSE_925_thetae_240.txt.gz
Theta_e
350 350 347 351 351 351 351 352 352 349 347 347 347 350 349 343 345 343 347 349 351 351 352 352 353 354 352 351 351 354 353 354 352 350 347 343 339 344 352 350 345 343 350
349 351 347 346 351 352 351 351 350 351 344 348 352 352 350 347 351 347 348 354 353 353 354 354 352 348 349 353 353 353 354 354 350 352 350 352 354 348 345 349 351 350 347
350 350 350 348 352 350 347 351 351 351 346 351 350 349 351 349 352 353 353 354 354 354 353 353 353 353 348 353 353 352 350 347 342 345 346 346 346 350 351 352 349 348 348
348 350 349 348 348 352 348 347 350 352 352 348 344 347 349 348 352 353 354 353 354 352 354 351 353 353 352 352 350 345 343 342 346 349 349 346 344 347 348 343 348 351 347
348 347 350 349 352 349 350 351 350 348 350 346 350 351 351 351 351 352 352 350 351 351 350 351 351 351 351 351 350 345 344 344 348 349 349 350 349 347 347 350 349 344 343
348 350 349 352 352 347 347 348 350 349 352 349 352 349 352 353 352 351 351 349 348 349 350 351 352 350 347 347 342 342 343 347 349 346 349 347 346 348 347 343 341 340 342
347 348 350 352 350 350 349 351 351 348 351 351 352 350 350 349 351 350 350 348 347 349 350 352 352 351 350 349 341 342 341 345 344 345 345 345 345 346 348 343 342 341 335
348 348 350 350 351 350 350 348 350 351 351 351 352 350 345 350 350 351 349 347 349 352 351 352 349 350 348 343 340 337 341 345 345 347 347 346 344 348 348 347 347 345 343
346 346 348 349 351 347 351 352 351 351 349 352 349 343 342 342 343 345 348 350 352 351 351 350 347 346 344 344 344 340 340 346 346 346 346 344 345 348 347 346 346 346 346
348 349 346 348 346 343 344 351 351 350 352 349 343 342 343 344 344 344 344 347 348 352 350 351 346 345 344 343 345 344 343 344 345 345 341 343 344 346 346 346 345 344 342
346 345 344 347 345 347 347 346 344 347 348 347 347 347 345 348 347 346 347 346 348 349 350 346 344 343 343 343 344 345 344 343 343 341 339 338 339 342 339 334 333 336 337
345 344 344 345 346 346 345 348 350 350 351 350 352 350 347 348 349 348 346 349 349 346 348 341 340 346 349 347 347 345 343 344 343 342 341 335 333 332 326 326 321 323 328
344 342 344 347 348 348 349 350 350 351 351 351 353 353 351 348 348 349 347 347 347 346 345 344 346 347 348 346 346 345 345 342 342 341 340 333 331 329 328 329 322 325 322
343 342 343 347 349 350 350 351 351 351 351 349 352 353 352 350 349 350 351 349 348 347 347 347 347 349 347 349 348 344 343 342 343 342 345 334 332 331 328 330 330 326 329
343 343 344 347 348 349 351 351 353 351 349 351 351 353 352 349 349 347 349 349 348 348 347 348 348 348 350 349 348 348 346 346 345 344 345 342 335 332 331 330 331 332 330
341 343 344 346 348 349 351 354 353 352 352 351 352 351 352 347 348 348 348 347 347 345 345 346 348 350 350 348 348 348 349 348 349 348 345 350 346 336 332 332 332 332 333
340 342 345 348 350 351 353 353 353 353 352 351 352 353 351 349 350 349 348 346 345 347 349 350 351 350 350 348 348 347 348 349 348 350 348 346 350 350 346 335 333 334 333
340 345 347 348 350 352 352 353 353 353 353 350 351 350 351 351 352 349 350 350 350 350 350 350 351 351 350 348 348 348 347 348 349 350 349 347 347 347 349 347 343 336 335
344 348 350 350 350 351 354 353 353 355 354 352 352 351 355 354 352 350 348 350 354 351 351 351 351 352 348 348 346 345 348 348 349 347 350 350 349 348 346 348 347 345 340
347 350 351 352 352 354 353 354 351 351 353 352 353 354 356 355 355 352 350 352 354 351 351 352 354 351 351 348 347 345 347 348 349 350 349 349 348 349 348 348 348 347 345
348 350 351 352 354 354 353 353 352 350 351 353 354 357 358 356 356 355 351 354 355 353 353 357 355 356 348 351 350 347 348 348 348 345 345 346 347 348 349 350 351 347 345
348 350 351 352 355 354 353 353 353 349 350 352 354 356 355 355 355 354 351 353 354 353 355 357 356 348 348 352 350 350 347 347 345 341 341 342 343 344 344 346 349 350 349
347 349 351 353 354 355 353 355 353 356 354 354 354 352 352 354 355 353 354 352 355 352 350 354 355 353 347 351 351 350 351 349 345 345 340 337 340 340 342 344 346 347 348
346 348 349 352 354 355 355 354 354 350 350 350 353 353 353 353 356 357 353 353 354 348 348 351 351 352 348 348 349 347 349 348 342 337 337 338 338 339 341 341 340 340 340
344 346 348 351 354 354 356 353 356 351 350 351 351 355 356 357 357 357 356 356 358 350 349 351 351 350 348 346 344 342 345 341 339 337 338 338 339 340 340 340 341 345 342
345 345 347 350 354 356 356 356 355 353 352 351 354 356 354 352 355 358 357 360 360 356 352 349 352 352 350 348 343 341 338 338 337 336 337 338 340 341 341 342 344 347 347

GFSSE_925_thetae_243.txt.gz
Theta_e
350 349 351 351 351 350 348 347 345 345 351 348 349 351 348 351 344 345 344 342 346 351 354 355 349 352 355 354 354 354 353 344 335 339 338 346 351 349 347 347 344 347 351
349 349 349 352 351 352 352 352 349 350 353 351 349 348 349 350 352 352 350 345 349 355 354 352 354 350 352 354 354 354 350 349 351 350 349 351 352 351 348 348 349 344 345
350 349 349 348 351 353 351 352 349 347 351 350 350 346 347 352 354 354 352 355 353 354 354 354 355 351 353 353 353 350 340 346 346 347 348 343 346 350 352 344 350 350 350
347 350 350 350 349 349 347 352 350 349 349 350 346 347 350 350 353 354 354 349 354 352 354 354 354 353 353 351 346 341 343 347 349 351 349 347 344 352 350 347 351 350 345
349 348 350 352 351 349 349 351 350 349 348 350 352 353 353 352 353 352 352 349 354 354 352 351 351 351 352 349 346 343 346 349 350 348 350 348 344 346 348 348 348 345 347
348 349 349 350 352 352 351 349 347 352 348 352 350 352 352 352 352 349 349 352 353 354 352 354 351 351 349 341 342 343 347 346 347 349 347 345 344 348 345 343 343 346 347
349 348 351 351 352 350 352 352 352 353 347 354 353 353 353 351 349 351 352 353 354 354 353 353 354 353 341 340 337 342 343 344 344 346 346 346 347 350 347 346 344 343 343
344 350 350 351 351 352 352 352 352 352 352 351 352 351 351 348 352 352 353 353 353 353 354 354 353 352 347 341 337 344 345 347 346 347 346 345 346 347 349 348 347 347 346
346 346 348 349 350 352 352 352 352 352 351 352 348 347 346 349 351 351 353 353 352 353 353 353 351 345 345 344 339 344 345 346 347 346 342 344 342 346 346 346 347 347 347
345 344 346 347 343 348 349 351 347 351 352 351 349 348 344 344 347 348 344 352 352 353 353 348 345 342 341 342 342 343 344 344 344 341 343 341 344 345 346 343 342 340 340
346 344 344 345 345 347 347 349 346 347 348 349 349 344 346 347 350 347 349 346 352 351 347 344 342 341 340 339 342 342 344 342 341 340 342 335 338 341 339 333 332 332 333
343 343 345 343 345 345 344 348 348 348 348 351 348 350 349 348 348 349 347 346 345 345 341 341 343 346 349 349 347 347 346 342 341 339 342 333 333 335 328 322 326 328 328
343 344 345 345 345 346 347 350 349 350 350 351 348 350 348 348 349 347 347 347 347 346 345 343 345 351 349 345 343 343 342 341 341 340 337 332 331 330 332 328 329 329 323
343 344 346 346 348 348 349 350 350 350 349 349 352 354 351 350 350 348 347 348 347 350 346 346 346 348 346 346 344 343 342 341 342 345 339 335 333 332 331 332 331 330 330
343 344 347 348 350 350 351 351 350 345 348 350 350 350 351 349 350 351 350 347 348 348 347 346 349 350 348 346 344 346 343 344 344 344 349 345 337 333 333 332 333 333 332
343 344 348 350 350 351 353 352 349 351 347 351 349 352 349 348 350 350 350 348 346 346 346 346 350 350 348 345 345 346 346 346 346 347 346 350 348 345 338 334 334 333 333
343 345 348 348 351 352 354 354 353 350 351 349 353 352 353 351 352 349 347 346 345 347 348 351 352 347 346 345 345 345 347 346 346 347 347 346 352 349 347 345 339 335 334
342 345 347 347 351 352 354 353 353 351 348 350 350 352 352 353 352 348 347 345 347 349 348 347 350 346 346 345 346 346 345 346 346 348 346 345 345 350 350 348 346 345 339
343 347 349 349 350 351 353 353 353 354 350 351 350 351 353 353 353 350 347 351 353 349 349 347 347 350 345 346 345 344 346 346 347 346 348 350 349 347 346 348 348 347 344
345 350 350 350 351 352 352 354 351 353 351 350 352 354 355 354 354 352 350 353 355 348 350 350 355 347 350 347 347 344 346 347 348 348 348 348 348 348 349 349 350 350 346
347 351 351 352 353 353 352 351 350 351 351 351 356 355 356 355 355 355 351 353 357 351 357 353 350 349 347 347 350 347 347 346 346 343 343 344 346 347 348 350 352 349 348
348 351 352 352 355 354 350 350 352 351 350 353 354 355 355 355 356 354 353 353 355 354 355 356 355 349 347 349 351 350 348 348 344 339 340 341 340 342 343 345 347 349 350
349 351 353 353 355 353 351 352 356 354 353 352 353 352 353 354 355 354 353 353 355 356 352 356 355 351 352 349 351 351 355 353 346 342 342 340 344 342 343 344 345 347 348
349 351 352 354 356 355 355 352 352 355 350 347 347 348 351 354 354 354 354 354 355 349 351 353 353 355 349 349 349 348 349 349 345 340 339 341 344 342 344 343 342 344 345
347 349 352 354 356 355 355 355 355 351 349 349 349 353 353 354 354 352 354 356 359 353 349 353 353 354 351 349 345 343 345 344 343 340 343 340 340 342 342 343 346 348 348
346 347 349 354 357 357 356 360 356 353 351 347 350 353 352 355 355 355 355 359 361 357 352 352 354 356 355 354 351 345 339 339 340 339 340 341 342 342 342 344 345 346 348

GFSSE_925_thetae_246.txt.gz
Theta_e
351 352 349 351 350 351 349 349 345 343 346 345 344 342 342 341 340 338 341 343 349 347 348 352 353 353 353 353 351 343 336 339 337 341 351 350 347 345 346 347 348 351 351
350 352 349 352 353 353 347 349 351 350 348 347 347 346 346 343 347 341 343 347 353 353 354 354 351 349 349 349 347 349 351 349 349 349 348 353 352 345 346 345 344 348 351
350 350 351 349 351 352 351 350 345 353 352 353 349 348 351 349 349 347 349 347 352 354 354 353 351 351 351 342 339 345 346 347 348 348 344 344 347 352 351 351 350 347 343
349 350 350 350 352 353 353 351 347 352 352 352 351 350 349 352 352 352 354 353 351 354 355 354 354 353 346 340 340 347 348 349 349 348 345 347 351 352 351 348 349 349 346
350 351 349 350 351 351 351 353 353 350 350 350 350 353 349 351 351 354 354 355 352 351 352 351 352 352 348 343 342 348 349 349 349 347 345 344 346 347 346 348 348 348 346
349 350 351 351 352 353 350 349 351 351 350 348 351 352 351 351 353 352 354 354 353 353 354 354 353 351 338 340 343 345 346 349 347 345 345 346 346 345 344 344 344 344 344
349 351 352 351 351 351 351 349 351 351 353 350 353 352 348 351 352 352 353 353 352 353 352 353 352 339 335 336 343 343 345 349 349 346 345 347 346 347 348 347 344 343 339
348 350 351 351 351 351 352 351 352 352 353 352 352 350 349 353 350 352 350 351 350 351 351 350 347 343 338 339 342 344 348 349 346 345 346 347 348 347 348 348 347 347 347
347 348 351 352 352 353 352 351 352 352 353 350 346 344 349 353 352 354 351 350 350 350 351 347 343 342 338 342 345 345 347 346 344 342 342 341 339 345 347 346 344 345 345
345 347 348 350 351 352 352 353 348 351 352 351 346 347 347 348 349 345 347 350 351 350 346 342 340 338 337 342 343 344 345 346 343 342 337 337 341 336 336 336 335 335 337
345 347 347 345 350 350 351 351 350 351 350 346 340 343 343 346 347 351 347 349 348 347 342 340 340 337 340 341 342 343 345 342 341 341 331 330 331 329 332 331 326 326 326
344 345 343 346 347 347 345 347 344 345 349 350 349 345 349 350 348 351 343 344 345 342 340 340 339 340 348 348 345 346 346 341 339 339 331 330 331 326 327 328 322 318 316
342 344 343 345 347 345 348 349 348 350 351 346 347 349 349 348 350 349 343 345 341 339 340 343 346 349 351 350 348 343 341 340 339 340 335 333 330 332 331 330 330 326 322
344 345 345 346 347 350 351 351 352 348 351 352 348 350 348 351 348 347 348 348 346 347 343 345 348 348 343 343 343 341 341 343 343 339 338 336 335 333 333 333 332 332 331
345 346 348 349 349 351 345 348 351 347 351 350 348 349 349 349 349 350 349 348 348 349 347 346 345 350 347 346 345 344 343 345 346 347 343 343 340 337 336 334 334 334 333
344 349 348 351 351 352 352 348 348 347 350 351 350 348 349 349 349 351 349 349 347 347 346 345 348 350 350 345 344 347 346 345 346 351 350 349 346 344 340 338 336 335 334
344 349 349 349 350 354 354 355 353 352 350 354 350 353 350 348 350 350 350 346 347 348 348 348 350 347 346 342 345 346 346 346 346 347 350 351 349 348 346 343 342 340 337
344 349 349 349 351 353 349 353 351 350 352 353 352 352 352 351 351 351 346 346 346 343 346 347 349 349 347 345 346 344 345 346 346 347 346 347 349 351 349 347 346 346 341
346 349 347 350 351 351 353 353 352 355 353 350 352 353 353 353 353 351 347 347 346 350 350 348 349 347 344 346 346 345 346 346 347 348 347 350 350 347 350 349 347 348 347
346 348 349 351 351 353 348 354 353 352 354 351 352 353 352 352 353 353 352 346 350 356 347 352 351 348 348 346 348 345 345 346 348 349 348 349 350 348 349 350 350 351 350
347 351 352 353 350 354 352 353 352 351 354 354 355 353 355 352 351 353 353 344 350 358 353 351 346 344 349 349 352 353 347 346 347 347 342 343 345 346 348 348 350 352 349
349 352 351 357 351 355 351 352 353 352 354 357 356 356 357 354 353 356 351 350 355 354 352 351 355 354 349 347 351 350 362 350 344 341 340 340 338 342 342 345 347 347 350
350 353 353 357 350 355 350 352 353 353 353 354 353 351 356 357 352 355 354 354 354 356 352 354 352 351 353 351 345 351 361 360 349 343 340 340 340 342 342 343 345 345 346
351 353 354 357 351 354 356 354 353 354 355 353 354 352 352 356 354 356 353 356 355 353 354 353 354 353 351 351 352 348 345 345 352 348 342 341 343 343 343 343 343 346 345
350 353 356 357 356 354 357 354 354 353 352 348 349 350 351 352 354 353 353 353 353 349 354 353 354 349 353 349 347 345 346 345 345 343 350 345 340 342 343 343 344 347 349
350 352 356 357 359 355 357 357 352 352 354 351 351 355 352 353 354 355 353 355 358 355 352 349 355 355 350 354 352 346 342 343 344 346 348 342 344 343 343 343 344 346 347

GFSSE_925_thetae_249.txt.gz
Theta_e
349 348 348 351 352 351 346 345 345 344 342 339 340 341 341 340 339 341 338 338 343 345 351 353 353 352 352 350 345 348 348 348 350 349 348 345 346 348 350 350 351 351 350
347 349 348 350 352 350 345 349 345 346 346 341 340 342 340 339 340 341 337 344 351 352 352 349 346 347 350 350 348 346 348 349 348 345 350 351 347 345 344 345 346 348 350
348 348 350 350 351 352 346 348 348 349 351 344 344 345 344 343 345 342 350 353 354 354 347 347 347 345 344 346 347 348 348 347 348 345 342 344 350 350 351 351 348 344 341
348 348 346 349 348 350 348 348 348 351 352 348 347 351 349 347 344 346 347 353 352 354 354 354 347 338 339 345 348 348 348 349 349 348 350 348 350 350 348 349 349 348 346
350 348 351 348 351 349 344 348 347 351 352 352 350 348 353 352 351 354 352 354 352 352 353 352 352 341 342 348 348 348 348 346 345 344 344 342 345 347 347 348 349 347 345
348 344 346 349 352 351 352 348 347 351 349 348 349 352 352 352 353 354 355 352 353 352 353 353 346 337 340 346 346 346 347 346 344 343 345 339 341 346 343 342 343 345 345
347 347 350 349 351 351 351 349 350 348 348 351 352 353 353 353 353 353 353 353 352 353 351 341 333 331 343 344 345 350 348 347 343 336 337 341 344 345 347 346 345 344 341
348 349 351 348 350 350 352 351 352 351 353 352 352 352 352 350 351 351 353 352 349 348 342 341 338 335 341 342 345 349 348 346 343 338 337 343 343 345 347 346 347 346 346
346 348 350 350 352 352 352 352 352 351 350 350 349 352 351 352 352 350 346 349 348 342 341 340 337 339 343 346 347 346 345 344 341 334 330 339 345 346 344 338 341 343 343
345 347 350 351 350 350 351 352 351 350 346 343 350 352 351 352 352 346 346 347 344 340 341 340 337 341 343 344 344 346 345 342 333 325 326 329 325 327 328 321 317 318 331
349 350 347 349 349 350 349 351 350 348 348 349 349 348 344 342 348 352 344 345 344 342 340 337 335 338 340 341 343 344 346 340 328 326 328 321 320 325 318 314 315 318 324
348 345 346 350 351 345 346 345 344 343 342 345 342 345 347 347 350 346 342 343 342 339 338 335 340 345 348 347 346 344 342 335 328 329 328 330 327 328 328 322 318 316 316
347 346 345 351 347 350 343 346 342 347 351 349 348 348 350 349 351 347 337 339 339 339 340 344 347 349 349 349 346 349 340 337 333 333 333 331 332 331 331 330 328 325 323
344 342 345 347 347 346 347 348 348 349 346 346 347 347 349 350 349 340 337 336 338 340 341 344 347 347 345 344 344 343 340 341 338 337 337 336 335 334 333 333 332 331 330
344 345 346 348 347 348 349 343 349 349 350 346 348 348 350 348 347 345 343 345 346 345 346 347 347 350 347 345 344 343 342 344 343 343 342 339 338 337 335 335 335 334 333
348 348 349 350 349 348 344 344 349 348 349 348 348 349 349 349 348 349 347 347 348 347 348 346 347 348 349 345 344 347 345 346 348 348 347 344 341 340 338 337 337 336 335
349 349 349 352 352 354 349 350 346 348 350 348 348 348 349 347 350 352 348 348 347 348 346 342 348 351 350 345 345 347 346 346 346 348 349 350 347 345 344 342 341 340 338
348 350 350 350 350 352 352 352 350 349 351 353 352 350 349 350 350 351 347 346 347 345 345 342 346 348 351 344 346 346 345 345 346 346 347 348 348 348 348 347 345 345 343
348 348 348 349 349 349 351 352 351 352 353 349 350 350 348 349 351 349 345 346 345 343 343 347 348 351 346 346 345 343 345 346 347 347 346 348 349 348 348 349 347 347 347
348 348 350 349 347 353 349 352 352 353 353 352 345 347 348 351 352 353 349 344 345 348 353 354 349 347 348 350 347 349 346 346 347 348 348 349 350 350 349 350 349 349 350
348 346 347 350 349 353 352 352 354 355 355 353 351 340 348 351 353 355 349 347 347 354 352 349 346 344 347 347 350 349 350 347 346 347 347 346 348 348 348 348 348 350 350
347 346 351 351 350 353 348 352 352 352 357 353 352 349 348 349 350 355 352 350 348 356 350 346 345 350 353 348 343 352 352 349 345 340 339 340 336 341 343 348 346 348 347
349 348 353 350 352 351 351 351 352 354 356 354 353 355 355 349 347 356 354 348 354 353 348 343 348 350 351 353 347 351 348 348 346 342 340 340 340 339 340 341 343 343 344
351 349 352 352 349 349 353 352 354 353 356 356 356 355 356 354 352 355 354 356 356 355 351 343 347 350 352 347 348 350 344 344 338 333 342 343 342 342 343 342 342 344 347
351 354 352 354 350 352 356 356 353 352 353 353 354 353 355 356 353 356 353 354 355 352 354 354 351 350 351 355 353 346 348 346 346 339 338 342 338 340 345 343 343 344 346
352 354 353 357 354 349 354 357 351 353 354 353 354 354 353 355 350 352 351 349 350 348 353 352 353 352 348 351 352 348 343 346 342 344 339 336 338 342 343 346 343 344 345